This is the latest recevied weather packets stored in our database for station/object S50ME-11. If no packets are shown the sender has not sent any weather packets the latest 10 day(s).
| Time | Temp. | Humidity | Pressure | Rain* | Wind** | Luminosity | Snow |
|---|---|---|---|---|---|---|---|
| 1777893355 | 31.67° C | 35% | 1015.8 hPa | - | - | - | - |
| 1777893352 | 31.67° C | 35% | 1015.8 hPa | - | - | - | - |
| 1777892554 | 31.67° C | 36% | 1016.9 hPa | - | - | - | - |
| 1777892455 | 31.67° C | 36% | 1016.9 hPa | - | - | - | - |
| 1777892452 | 31.67° C | 36% | 1016.9 hPa | - | - | - | - |
| 1777891555 | 32.22° C | 36% | 1017.1 hPa | - | - | - | - |
| 1777891552 | 32.22° C | 36% | 1017.1 hPa | - | - | - | - |
| 1777890654 | 32.22° C | 36% | 1018.7 hPa | - | - | - | - |
| 1777890651 | 32.22° C | 36% | 1018.7 hPa | - | - | - | - |
| 1777889800 | 32.22° C | 35% | 1017 hPa | - | - | - | - |
| 1777889754 | 32.22° C | 35% | 1017 hPa | - | - | - | - |
| 1777889751 | 32.22° C | 35% | 1017 hPa | - | - | - | - |
| 1777888893 | 32.78° C | 36% | 1017 hPa | - | - | - | - |
| 1777888854 | 32.78° C | 36% | 1017 hPa | - | - | - | - |
| 1777888851 | 32.78° C | 36% | 1017 hPa | - | - | - | - |
| 1777887950 | 33.33° C | 36% | 1017.4 hPa | - | - | - | - |
| 1777887053 | 33.33° C | 36% | 1017.7 hPa | - | - | - | - |
| 1777887050 | 33.33° C | 36% | 1017.7 hPa | - | - | - | - |
| 1777886149 | 33.33° C | 36% | 1017.9 hPa | - | - | - | - |
| 1777885248 | 32.78° C | 36% | 1018.1 hPa | - | - | - | - |
| 1777884352 | 31.67° C | 36% | 1018.1 hPa | - | - | - | - |
| 1777884348 | 31.67° C | 36% | 1018.1 hPa | - | - | - | - |
| 1777883451 | 30.56° C | 37% | 1018.2 hPa | - | - | - | - |
| 1777883448 | 30.56° C | 37% | 1018.2 hPa | - | - | - | - |
| 1777882551 | 29.44° C | 38% | 1017.2 hPa | - | - | - | - |
* Rain since midnight (hover to see other rain measurements)
** Current wind speed in m/s (hover to see current wind gust speed)